Regional Weather Roundup
Issued by NWS

Home | Current Version | Previous Version | Text Only | Print | Product List | Glossary On
Versions: 1 2 3 4 5 6 7 8 9 10 11 12 13 14 15 16 17 18 19 20 21 22 23 24 25 26 27 28 29 30 31 32 33 34 35 36 37 38 39 40 41 42 43 44 45 46 47 48 49 50
599
ASUS45 KPSR 232310
RWRAZ

ARIZONA REGIONAL HOURLY WEATHER ROUNDUP
NATIONAL WEATHER SERVICE TUCSON AZ
400 PM MST TUE MAY 23 2017

NOTE: FAIR INDICATES FEW OR NO CLOUDS BELOW 12,000 FEET WITH NO
SIGNIFICANT WEATHER AND/OR OBSTRUCTIONS TO VISIBILITY.

AZZ001>003-036-240000-
NORTHWEST ARIZONA

CITY           SKY/WX    TMP DP  RH WIND       PRES   REMARKS
BULLHEAD CITY  SUNNY    106  25   6 S5        29.77F
KINGMAN        SUNNY     95  27   9 NW8       29.98F
$$

AZZ004>008-015-016-018-240000-
NORTH CENTRAL ARIZONA

CITY           SKY/WX    TMP DP  RH WIND       PRES   REMARKS
GRAND CANYON   SUNNY     76  11   8 VRB7G18   30.21F
WILLIAMS       CLEAR     75  23  14 NW14      30.22F
PRESCOTT       SUNNY     87  12   6 NW14G21   30.09F
FLAGSTAFF      SUNNY     75  19  12 E9        30.21F
PAYSON         CLEAR     88  21   8 W8G17     30.09F
PAGE           SUNNY     84  31  14 NE7       30.05F
$$

AZZ009>014-017-240000-
NORTHEAST ARIZONA

CITY           SKY/WX    TMP DP  RH WIND       PRES   REMARKS
WINSLOW        SUNNY     84  28  13 NW13      30.10F
SAINT JOHNS    SUNNY     81  28  14 NW18G25   30.09F
WINDOW ROCK    SUNNY     73  26  17 NW20G26   30.18F
SHOW LOW       SUNNY     73  23  15 W10G18    30.19F
$$

AZZ023-240000-
GREATER PHOENIX AREA

CITY           SKY/WX    TMP DP  RH WIND       PRES   REMARKS
PHOENIX        SUNNY    103  21   5 SW9G17    29.77F
BUCKEYE        CLEAR    102  21   5 SE10      29.78F
GLENDALE       SUNNY    106  21   5 VRB6      29.78F
LUKE AFB       SUNNY    104  25   6 SW8       29.76F
DEER VALLEY    SUNNY    102  19   5 W10G16    29.79F
SCOTTSDALE     SUNNY    103  19   5 VRB3      29.81F
MESA-FALCON    MOSUNNY  N/A N/A N/A NW5       29.80F
MESA-GATEWAY   SUNNY    100  25   7 W6        29.80F
CHANDLER       SUNNY    102  21   5 W9        29.79F
$$

AZZ027-028-240000-
SOUTHWEST MARICOPA COUNTY AND PINAL COUNTY

CITY           SKY/WX    TMP DP  RH WIND       PRES   REMARKS
CASA GRANDE    SUNNY    102  21   5 VRB6      29.81F
$$

AZZ503-504-507>509-240000-
SOUTHEAST ARIZONA

CITY           SKY/WX    TMP DP  RH WIND       PRES   REMARKS
TUCSON         SUNNY    100  19   5 W8G24     29.89F
DAVIS-MONTHAN  SUNNY     98  21   6 N12G23    29.88F
RYAN FIELD     CLEAR     99  21   6 NW13G20   29.87F
NOGALES        SUNNY     96  19   6 W14G22    29.96F
SIERRA VISTA   SUNNY     91  19   7 W16G26    30.04S
DOUGLAS        SUNNY     94  16   6 NW12G31   29.96F
SAFFORD        SUNNY     98  16   5 W18G29    29.86F
$$

AZZ020-021-025-026-031-240000-
SOUTHWEST ARIZONA

CITY           SKY/WX    TMP DP  RH WIND       PRES   REMARKS
YUMA           SUNNY    109  25   5 SW12      29.73F HX 101
$$

CAZ031-033-041-043-047-048-061-240000-
SOUTHERN CALIFORNIA

CITY           SKY/WX    TMP DP  RH WIND       PRES   REMARKS
DOWNTOWN L.A.  SUNNY     76  56  49 MISG      29.89F
L.A. AIRPORT   MOSUNNY   67  57  70 W10       29.92F
SAN DIEGO      MOSUNNY   71  57  61 W10       29.94F
BURBANK        SUNNY     88  54  31 SE5       29.90F
ONTARIO        MOSUNNY   89  55  31 W21G26    29.90S
RIVERSIDE      SUNNY     88  57  34 W16G25    29.89F
PALM SPRINGS   SUNNY    110  28   6 SE13      29.76F HX 102
EL CENTRO NAS  MOSUNNY  108  20   4 VRB3      29.73F
IMPERIAL       MOSUNNY  110  35   7 NW6       29.72F HX 103
BLYTHE         SUNNY    108  24   5 S14G20    29.74F HX 100
NEEDLES        SUNNY    107  16   4 CALM      29.78F
$$

NVZ020-UTZ003-240000-
SOUTHERN NEVADA-UTAH

CITY           SKY/WX    TMP DP  RH WIND       PRES   REMARKS
LAS VEGAS      MOSUNNY   98  19   6 VRB3      29.87F
SALT LAKE CITY MOSUNNY   81  36  19 NE7       30.07F
$$

NMZ009-TXZ055-240000-
NEW MEXICO-WEST TEXAS

CITY           SKY/WX    TMP DP  RH WIND       PRES   REMARKS
ALBUQUERQUE    MOSUNNY   78  13   8 NW22G31   30.02F
EL PASO        MOSUNNY   87  31  13 S7        29.92F
$$


........................KEY........................
SKY/WX - SKY CONDITION/WEATHER
TMP    - TEMPERATURE IN FAHRENHEIT
DP     - DEWPOINT IN FAHRENHEIT
RH     - RELATIVE HUMIDITY IN PERCENT
WIND   - DIRECTION AND SPEED IN MILES PER HOUR (MPH)
VRB    - VARIABLE WIND DIRECTION
PRES   - MEAN SEA LEVEL PRESSURE IN INCHES OF MERCURY
         F - FALLING PRESSURE   R - RISING PRESSURE
         S - STEADY PRESSURE
VSB    - VISIBILITY IN MILES
HX     - HEAT INDEX IN FAHRENHEIT
WCI    - WIND CHILL INDEX IN FAHRENHEIT
TC     - TEMPERATURE IN CELSIUS WHICH IS ALSO KNOWN AS
         TEMPERATURE IN CENTIGRADE
AFB    - AIR FORCE BASE
         LUKE AFB IS LUKE AIR FORCE BASE
         DAVIS-MONTHAN IS DAVIS-MONTHAN AIR FORCE BASE
NAS    - NAVAL AIR STATION
         EL CENTRO NAS IS EL CENTRO NAVAL AIR STATION
N/A    - NOT AVAILABLE





USA.gov is the U.S. government's official web portal to all federal, state and local government web resources and services.